Location: Brabourne
(51.1333°N, 1.0000°E)
Time: 11:36:30
(UTC+00:00)

ADEOS Rocket - Pass Details

Date: 28 October 2021
Orbit: 858 x 1307 km, 98.8° (Epoch: 26 November)

Event Time Altitude Azimuth Distance (km) Brightness Sun altitude
Exits shadow 23:26:31 14° 8° (N) 2,755 5.7 -52.2°
Drops below altitude 10° 23:27:33 10° 2° (N) 3,027 6.0 -52.2°
Sets 23:30:27 0° 350° (N) 3,919 6.8 -52.3°
